• In Österreich
  • Länderverzeichnis
  • Für 7 Tage
  • Wassertemperatur
  • Satellitenkarten
  • Wetterkarte
  • News
  • Widgets
  • user-avatar
    Anmelden

    Stündliche Wetter Zadowice

    Heute, 21 August, Dienstag

    Zeit Temperatur Niederschläge Wind Luftdruck Luftfeuchtigkeit
    00:00 +20°C° 0 mm 2 m/S 752 mmHg 76%
    01:00 +20°C° 0 mm 2 m/S 752 mmHg 79%
    02:00 +20°C° 0 mm 2 m/S 752 mmHg 79%
    03:00 +20°C° 0 mm 2 m/S 752 mmHg 79%
    04:00 +20°C° 0 mm 2 m/S 753 mmHg 80%
    05:00 +20°C° 0 mm 2 m/S 753 mmHg 78%
    06:00 +20°C° 0 mm 2 m/S 753 mmHg 76%
    07:00 +20°C° 0 mm 2 m/S 754 mmHg 73%
    08:00 +21°C° 0 mm 3 m/S 754 mmHg 67%
    09:00 +22°C° 0 mm 3 m/S 754 mmHg 62%
    10:00 +23°C° 0 mm 4 m/S 754 mmHg 57%
    11:00 +25°C° 0 mm 4 m/S 754 mmHg 54%
    12:00 +25°C° 0 mm 4 m/S 754 mmHg 52%
    13:00 +25°C° 0 mm 4 m/S 754 mmHg 50%
    14:00 +26°C° 0 mm 4 m/S 754 mmHg 49%
    15:00 +26°C° 0 mm 4 m/S 753 mmHg 48%
    16:00 +26°C° 0 mm 4 m/S 753 mmHg 47%
    17:00 +24°C° 0 mm 3 m/S 753 mmHg 50%
    18:00 +23°C° 0 mm 2 m/S 754 mmHg 53%
    19:00 +21°C° 0 mm 2 m/S 754 mmHg 57%
    20:00 +20°C° 0 mm 2 m/S 754 mmHg 58%
    21:00 +19°C° 0 mm 2 m/S 754 mmHg 60%
    22:00 +18°C° 0 mm 2 m/S 755 mmHg 62%
    23:00 +18°C° 0 mm 2 m/S 755 mmHg 64%

    Morgen, 22 August, Mittwoch

    Zeit Temperatur Niederschläge Wind Luftdruck Luftfeuchtigkeit
    00:00 +17°C° 0 mm 2 m/S 755 mmHg 66%
    01:00 +17°C° 0 mm 2 m/S 755 mmHg 69%
    02:00 +16°C° 0 mm 2 m/S 755 mmHg 70%
    03:00 +16°C° 0 mm 2 m/S 755 mmHg 72%
    04:00 +15°C° 0 mm 2 m/S 755 mmHg 73%
    05:00 +16°C° 0 mm 2 m/S 755 mmHg 71%
    06:00 +17°C° 0 mm 2 m/S 755 mmHg 68%
    07:00 +18°C° 0 mm 2 m/S 755 mmHg 65%
    08:00 +20°C° 0 mm 2 m/S 755 mmHg 59%
    09:00 +23°C° 0 mm 2 m/S 755 mmHg 53%
    10:00 +25°C° 0 mm 2 m/S 755 mmHg 47%
    11:00 +26°C° 0 mm 2 m/S 755 mmHg 44%
    12:00 +26°C° 0 mm 2 m/S 754 mmHg 41%
    13:00 +27°C° 0 mm 2 m/S 754 mmHg 38%
    14:00 +28°C° 0 mm 2 m/S 754 mmHg 38%
    15:00 +28°C° 0 mm 2 m/S 753 mmHg 37%
    16:00 +28°C° 0 mm 2 m/S 753 mmHg 37%
    17:00 +26°C° 0 mm 2 m/S 753 mmHg 41%
    18:00 +25°C° 0 mm 2 m/S 753 mmHg 46%
    19:00 +23°C° 0 mm 2 m/S 753 mmHg 50%
    20:00 +23°C° 0 mm 2 m/S 753 mmHg 53%
    21:00 +21°C° 0 mm 2 m/S 753 mmHg 55%
    22:00 +20°C° 0 mm 3 m/S 753 mmHg 57%
    23:00 +20°C° 0 mm 3 m/S 753 mmHg 60%

    übermorgen, 23 August, Donnerstag

    Zeit Temperatur Niederschläge Wind Luftdruck Luftfeuchtigkeit
    00:00 +19°C° 0 mm 3 m/S 753 mmHg 63%
    01:00 +19°C° 0 mm 3 m/S 752 mmHg 65%
    02:00 +18°C° 0 mm 3 m/S 752 mmHg 68%
    03:00 +18°C° 0 mm 3 m/S 752 mmHg 71%
    04:00 +18°C° 0 mm 3 m/S 752 mmHg 74%
    05:00 +19°C° 0 mm 3 m/S 752 mmHg 72%
    06:00 +20°C° 0 mm 3 m/S 751 mmHg 70%
    07:00 +21°C° 0 mm 3 m/S 751 mmHg 68%
    08:00 +24°C° 0 mm 3 m/S 751 mmHg 61%
    09:00 +26°C° 0 mm 3 m/S 751 mmHg 55%
    10:00 +28°C° 0 mm 3 m/S 751 mmHg 48%
    11:00 +29°C° 0 mm 3 m/S 750 mmHg 45%
    12:00 +30°C° 0 mm 3 m/S 750 mmHg 43%
    13:00 +31°C° 0 mm 2 m/S 750 mmHg 40%
    14:00 +31°C° 0 mm 2 m/S 749 mmHg 41%
    15:00 +31°C° 0 mm 2 m/S 749 mmHg 43%
    16:00 +30°C° 0 mm 1 m/S 748 mmHg 45%
    17:00 +29°C° 0,1 mm 1 m/S 748 mmHg 47%
    18:00 +28°C° 0,1 mm 2 m/S 748 mmHg 50%
    19:00 +27°C° 0,1 mm 2 m/S 748 mmHg 53%
    20:00 +26°C° 0,5 mm 2 m/S 748 mmHg 57%
    21:00 +25°C° 0,5 mm 2 m/S 748 mmHg 61%
    22:00 +24°C° 0,5 mm 3 m/S 748 mmHg 65%
    23:00 +24°C° 0,6 mm 3 m/S 748 mmHg 68%

    24 August, Freitag

    Zeit Temperatur Niederschläge Wind Luftdruck Luftfeuchtigkeit
    00:00 +24°C° 0,6 mm 3 m/S 747 mmHg 72%
    01:00 +22°C° 0,6 mm 3 m/S 747 mmHg 76%
    02:00 +22°C° 0,1 mm 3 m/S 747 mmHg 77%
    03:00 +22°C° 0,1 mm 3 m/S 746 mmHg 79%
    04:00 +21°C° 0,1 mm 3 m/S 746 mmHg 81%
    05:00 +22°C° 0,3 mm 3 m/S 746 mmHg 78%
    06:00 +24°C° 0,3 mm 3 m/S 746 mmHg 76%
    07:00 +24°C° 0,3 mm 3 m/S 745 mmHg 74%
    08:00 +26°C° 0 mm 3 m/S 745 mmHg 68%
    09:00 +27°C° 0 mm 4 m/S 745 mmHg 61%
    10:00 +29°C° 0 mm 4 m/S 745 mmHg 55%
    11:00 +30°C° 0 mm 4 m/S 745 mmHg 51%
    12:00 +32°C° 0 mm 4 m/S 744 mmHg 47%
    13:00 +33°C° 0 mm 3 m/S 744 mmHg 43%
    14:00 +32°C° 0,1 mm 4 m/S 744 mmHg 47%
    15:00 +30°C° 0,1 mm 4 m/S 744 mmHg 52%
    16:00 +29°C° 0,1 mm 4 m/S 744 mmHg 56%
    17:00 +27°C° 0,8 mm 3 m/S 744 mmHg 64%
    18:00 +25°C° 0,8 mm 3 m/S 744 mmHg 71%
    19:00 +24°C° 0,8 mm 2 m/S 744 mmHg 79%
    20:00 +23°C° 0,4 mm 2 m/S 744 mmHg 81%
    21:00 +23°C° 0,4 mm 2 m/S 744 mmHg 82%
    22:00 +21°C° 0,4 mm 2 m/S 744 mmHg 84%
    23:00 +21°C° 0,1 mm 2 m/S 744 mmHg 85%

    25 August, Samstag

    Zeit Temperatur Niederschläge Wind Luftdruck Luftfeuchtigkeit
    00:00 +20°C° 0,1 mm 3 m/S 745 mmHg 87%
    01:00 +20°C° 0,1 mm 3 m/S 745 mmHg 88%
    02:00 +19°C° 0,3 mm 3 m/S 745 mmHg 88%
    03:00 +19°C° 0,3 mm 3 m/S 745 mmHg 87%
    04:00 +19°C° 0,3 mm 3 m/S 745 mmHg 87%
    05:00 +19°C° 0,1 mm 4 m/S 746 mmHg 86%
    06:00 +17°C° 0,1 mm 5 m/S 746 mmHg 85%
    07:00 +17°C° 0,1 mm 5 m/S 747 mmHg 85%
    08:00 +17°C° 0,1 mm 5 m/S 747 mmHg 80%
    09:00 +18°C° 0,1 mm 4 m/S 747 mmHg 75%
    10:00 +18°C° 0,1 mm 4 m/S 748 mmHg 71%
    11:00 +19°C° 0,1 mm 4 m/S 748 mmHg 66%
    12:00 +19°C° 0,1 mm 3 m/S 748 mmHg 62%
    13:00 +19°C° 0,1 mm 3 m/S 748 mmHg 57%
    14:00 +19°C° 0 mm 2 m/S 748 mmHg 56%
    15:00 +19°C° 0 mm 2 m/S 748 mmHg 55%
    16:00 +20°C° 0 mm 1 m/S 748 mmHg 54%
    17:00 +20°C° 0,1 mm 1 m/S 748 mmHg 57%
    18:00 +19°C° 0,1 mm 1 m/S 748 mmHg 59%
    19:00 +19°C° 0,1 mm 1 m/S 748 mmHg 62%
    20:00 +18°C° 0,4 mm 1 m/S 748 mmHg 68%
    21:00 +16°C° 0,4 mm 1 m/S 748 mmHg 73%
    22:00 +16°C° 0,4 mm 1 m/S 747 mmHg 78%
    23:00 +15°C° 1,2 mm 2 m/S 747 mmHg 81%

    26 August, Sonntag

    Zeit Temperatur Niederschläge Wind Luftdruck Luftfeuchtigkeit
    00:00 +15°C° 1,2 mm 2 m/S 747 mmHg 83%
    01:00 +14°C° 1,2 mm 3 m/S 747 mmHg 86%
    02:00 +13°C° 1,7 mm 4 m/S 747 mmHg 87%
    03:00 +13°C° 1,7 mm 4 m/S 747 mmHg 87%
    04:00 +13°C° 1,7 mm 5 m/S 747 mmHg 88%
    05:00 +12°C° 1,5 mm 5 m/S 747 mmHg 88%
    06:00 +12°C° 1,5 mm 5 m/S 747 mmHg 88%
    07:00 +12°C° 1,5 mm 5 m/S 748 mmHg 88%
    08:00 +12°C° 1 mm 5 m/S 748 mmHg 88%
    09:00 +12°C° 1 mm 5 m/S 748 mmHg 87%
    10:00 +12°C° 1 mm 5 m/S 748 mmHg 87%
    11:00 +13°C° 0,6 mm 5 m/S 748 mmHg 84%
    12:00 +13°C° 0,6 mm 5 m/S 749 mmHg 82%
    13:00 +14°C° 0,6 mm 5 m/S 749 mmHg 79%
    14:00 +14°C° 0,1 mm 5 m/S 749 mmHg 75%
    15:00 +15°C° 0,1 mm 4 m/S 749 mmHg 71%
    16:00 +15°C° 0,1 mm 4 m/S 749 mmHg 68%
    17:00 +16°C° 0 mm 3 m/S 750 mmHg 71%
    18:00 +15°C° 0 mm 2 m/S 750 mmHg 74%
    19:00 +14°C° 0 mm 1 m/S 750 mmHg 77%
    20:00 +14°C° 0 mm 1 m/S 750 mmHg 78%
    21:00 +13°C° 0 mm 1 m/S 751 mmHg 79%
    22:00 +13°C° 0 mm 1 m/S 751 mmHg 81%
    23:00 +13°C° 0 mm 1 m/S 751 mmHg 81%
    Mehr zeigen